Culdrose, United Kingdom

5:06 AM BST on August 21, 2017 (GMT +0100)
Culdrose Navy

Weather History for EGDR - June, 2013

Change the Weather History Date:

Thursday, June 27, 2013

  Actual Average Record
Temperature  
Mean Temperature 56 °F -  
Max Temperature 63 °F 63 °F 69 °F (2005)
Min Temperature 50 °F 53 °F 50 °F (1997)
Degree Days  
Heating Degree Days 8    
Growing Degree Days 6 (Base 50)    
Moisture  
Dew Point 52 °F    
Average Humidity 82    
Maximum Humidity 100    
Minimum Humidity 59    
Precipitation  
Precipitation 0.00 in - - ()
Sea Level Pressure  
Sea Level Pressure 30.42 in    
Wind  
Wind Speed 8 mph ()    
Max Wind Speed 14 mph    
Max Gust Speed -    
Visibility 5.5 miles    
Events Fog    
Averages and records for this station are not official NWS values.
T = Trace of Precipitation, MM = Missing Value Source: Averaged Metar Reports

Daily Weather History Graph

Daily Weather History Graph

Search for Another Location

Airport or City:

Trip Planner

Search our weather history database for the weather conditions in past years. The results will help you decide how hot, cold, wet, or windy it might be!

Date:

Astronomy

Jun. 27, 2013 Rise Set
Actual Time 5:13 AM BST 9:34 PM BST
Civil Twilight 4:28 AM BST 10:19 PM BST
Nautical Twilight 3:23 AM BST 11:24 PM BST
Astronomical Twilight 1:56 AM BST 12:51 AM BST
Moon 11:49 PM BST (6/27) 10:28 AM BST (6/27)
Length of Visible Light 17h 50m
Length of Day
16h 21m
Waning Gibbous, 78% of the Moon is Illuminated
Jun 27
Waning Gibbous
Jun 30
Last Quarter
Jul 8
New
Jul 16
First Quarter
Jul 22
Full

Hourly Weather History & Observations

Time (BST) Temp. Dew Point Humidity Pressure Visibility Wind Dir Wind Speed Gust Speed Precip Events Conditions
12:50 AM 53 °F 50 °F 87% 30.49 in 4 mi North 5.8 mph - -   Haze
12:50 AM 53.6 °F 50.0 °F 88% 30.48 in 4.3 mi North 5.8 mph - N/A   Haze
1:50 AM 53.6 °F 50.0 °F 88% 30.48 in 5.0 mi North 11.5 mph - N/A   Haze
2:50 AM 53.6 °F 50.0 °F 88% 30.48 in 6.2 mi NNE 10.4 mph - N/A   Haze
3:50 AM 52 °F 49 °F 87% 30.48 in 9 mi North 4.6 mph - -   Haze
3:50 AM 51.8 °F 50.0 °F 94% 30.48 in 6.2 mi North 4.6 mph - N/A   Haze
4:50 AM 50.0 °F 50.0 °F 100% 30.45 in 6.2 mi NNW 5.8 mph - N/A   Scattered Clouds
5:50 AM 51.8 °F 50.0 °F 94% 30.45 in 3.1 mi NNW 9.2 mph - N/A Fog Patches of Fog
6:50 AM 54 °F 52 °F 90% 30.47 in 6 mi North 8.1 mph - - Fog Light Fog
6:50 AM 53.6 °F 51.8 °F 94% 30.45 in 5.6 mi North 8.1 mph - N/A   Haze
7:50 AM 55.4 °F 51.8 °F 88% 30.45 in 6.2 mi NNW 6.9 mph - N/A   Mostly Cloudy
8:50 AM 57.2 °F 51.8 °F 82% 30.45 in 6.2 mi NNW 8.1 mph - N/A   Scattered Clouds
9:50 AM 59 °F 53 °F 74% 30.46 in 11 mi NW 6.9 mph - -   Haze
9:50 AM 59.0 °F 53.6 °F 82% 30.45 in 6.2 mi NW 6.9 mph - N/A   Scattered Clouds
10:50 AM 60.8 °F 53.6 °F 77% 30.45 in 6.2 mi NNW 5.8 mph - N/A   Scattered Clouds
11:50 AM 62.6 °F 53.6 °F 72% 30.45 in 6.2 mi NNW 9.2 mph - N/A   Haze
12:50 PM 63 °F 52 °F 59% 30.45 in 11 mi NNW 9.2 mph - -   Haze
12:50 PM 62.6 °F 51.8 °F 68% 30.45 in 6.2 mi NNW 9.2 mph - N/A   Mostly Cloudy
1:50 PM 62.6 °F 50.0 °F 63% 30.42 in 6.2 mi NNW 11.5 mph - N/A   Mostly Cloudy
2:50 PM 62.6 °F 50.0 °F 63% 30.42 in 6.2 mi NW 11.5 mph - N/A   Mostly Cloudy
3:50 PM 61 °F 51 °F 61% 30.42 in 9 mi NW 11.5 mph - -   Haze
3:50 PM 60.8 °F 51.8 °F 72% 30.42 in 6.2 mi NW 11.5 mph - N/A   Partly Cloudy
4:50 PM 60.8 °F 51.8 °F 72% 30.39 in 6.2 mi NNW 13.8 mph - N/A   Scattered Clouds
5:50 PM 60.8 °F 48.2 °F 63% 30.36 in 6.2 mi NW 13.8 mph - N/A   Mostly Cloudy
6:50 PM 61 °F 52 °F 65% 30.38 in 7 mi NW 11.5 mph - -   Haze
6:50 PM 60.8 °F 51.8 °F 72% 30.36 in 6.2 mi NW 11.5 mph - N/A   Scattered Clouds
7:50 PM 59.0 °F 53.6 °F 82% 30.36 in 5.0 mi WNW 11.5 mph - N/A   Haze
8:50 PM 55.4 °F 55.4 °F 100% 30.33 in 0.6 mi West 11.5 mph - N/A Fog Patches of Fog
9:50 PM 56 °F 55 °F 95% 30.35 in 0 mi West 11.5 mph - - Fog Partial Fog
9:50 PM 55.4 °F 55.4 °F 100% 30.33 in 0.1 mi West 11.5 mph - N/A Fog Fog
10:50 PM 55.4 °F 55.4 °F 100% 30.33 in 0.5 mi WNW 11.5 mph - N/A Fog Fog
11:50 PM 55.4 °F 53.6 °F 94% 30.33 in 0.4 mi WNW 10.4 mph - N/A Fog Patches of Fog